Location: Holkham
(52.9500°N, 0.8167°E)
Time: 04:48:26
(UTC+00:00)

CZ-2C R/B - Pass Details

Date: 19 May 2025
Orbit: 631 x 693 km, 98.1° (Epoch: 13 June)

Event Time Altitude Azimuth Distance (km) Brightness Sun altitude
Rises 23:12:36 0° 13° (NNE) 2,943 8.3 -16.5°
Reaches altitude 10° 23:14:49 10° 11° (N) 2,027 7.3 -16.6°
Maximum altitude 23:19:12 70° 289° (WNW) 677 3.8 -16.7°
Enters shadow 23:21:44 25° 210° (SSW) 1,296 4.8 -16.7°
